Location: Asheville, NC
(35.6000°N, 82.5500°W)
Time: 09:25:41

Hubble Space Telescope - Pass Details

Date: 12 March 2018
Orbit: 537 x 541 km, 28.5° (Epoch: 20 March)

Event Time Altitude Azimuth Distance (km) Brightness Sun altitude
Rises 21:58:08 0° 252° (WSW) 2,673 5.1 -29.4°
Reaches altitude 10° 22:00:34 10° 241° (WSW) 1,782 3.9 -29.9°
Enters shadow 22:01:23 15° 235° (SW) 1,513 3.4 -30.0°
